Regional Weather Roundup
Issued by NWS

Home | Current Version | Previous Version | Text Only | Print | Product List | Glossary Off
Versions: 1 2 3 4 5 6 7 8 9 10 11 12 13 14 15 16 17 18 19 20 21 22 23 24 25 26 27 28 29 30 31 32 33 34 35 36 37 38 39 40 41 42 43 44 45 46 47 48 49 50

000
ASUS45 KPSR 060910
RWRAZ

ARIZONA REGIONAL HOURLY WEATHER ROUNDUP
NATIONAL WEATHER SERVICE PHOENIX AZ
200 AM MST WED MAY 06 2015

NOTE: FAIR INDICATES FEW OR NO CLOUDS BELOW 12,000 FEET WITH NO
SIGNIFICANT WEATHER AND/OR OBSTRUCTIONS TO VISIBILITY.

AZZ001>003-036-061000-
NORTHWEST ARIZONA

CITY           SKY/WX    TMP DP  RH WIND       PRES   REMARKS
BULLHEAD CITY  PTCLDY    72  41  33 SE3       29.74F
KINGMAN        PTCLDY    57  28  33 S10       29.86F
$$

AZZ004>008-015-016-018-061000-
NORTH CENTRAL ARIZONA

CITY           SKY/WX    TMP DP  RH WIND       PRES   REMARKS
GRAND CANYON   CLOUDY    43  40  89 SW6       30.00F
WILLIAMS       PTCLDY    48  37  66 S10G16    30.06F
PRESCOTT       PTCLDY    54  39  57 SE5       29.97F
FLAGSTAFF      MOCLDY    38  38 100 CALM      30.03F
PAYSON         MOCLDY    48  46  93 CALM      30.00F
PAGE           CLOUDY    58  47  66 SW5       29.88
$$

AZZ009>014-017-061000-
NORTHEAST ARIZONA

CITY           SKY/WX    TMP DP  RH WIND       PRES   REMARKS
WINSLOW        MOCLDY    54  42  64 W7        29.93F
SAINT JOHNS    CLOUDY    52  40  63 SW12      29.96F
WINDOW ROCK    MOCLDY    48  42  80 SW14G24   29.98F
SHOW LOW       PTCLDY    45  39  81 S9        30.03F
$$

AZZ023-061000-
GREATER PHOENIX AREA

CITY           SKY/WX    TMP DP  RH WIND       PRES   REMARKS
PHOENIX        MOCLDY    77  44  30 NW5       29.80F
LUKE AFB       MOCLDY    72  47  41 SW8       29.80F
DEER VALLEY    CLOUDY    71  45  39 W7        29.82F
SCOTTSDALE     MOCLDY    73  46  38 CALM      29.84F
MESA-GATEWAY   CLOUDY    68  46  45 E7        29.84F
$$

AZZ027-028-061000-
SOUTHWEST MARICOPA COUNTY AND PINAL COUNTY

CITY           SKY/WX    TMP DP  RH WIND       PRES   REMARKS
CASA GRANDE    MOCLDY    70  45  40 SW6       29.83S
GILA BEND      FAIR      69  42  37 E5        29.80F
$$

AZZ503-504-507>509-061000-
SOUTHEAST ARIZONA

CITY           SKY/WX    TMP DP  RH WIND       PRES   REMARKS
TUCSON         PTCLDY    67  47  48 SE6       29.92F
DAVIS-MONTHAN  PTCLDY    64  49  57 S6        29.90F
NOGALES        CLEAR     55  42  61 E6        29.96F
SIERRA VISTA   CLEAR     59  42  54 W8        29.99F
DOUGLAS        CLEAR     51  34  52 S3        29.97F
SAFFORD        CLEAR     55  43  63 CALM      29.90F
$$

AZZ020-021-025-026-031-061000-
SOUTHWEST ARIZONA

CITY           SKY/WX    TMP DP  RH WIND       PRES   REMARKS
YUMA           PTCLDY    70  59  68 SW5       29.77S
$$

CAZ031-033-041-043-047-048-061-061000-
SOUTHERN CALIFORNIA

CITY           SKY/WX    TMP DP  RH WIND       PRES   REMARKS
DOWNTOWN L.A.  CLOUDY    59  51  75 CALM      29.93F
L.A. AIRPORT   MOCLDY    59  51  75 CALM      29.94F
SAN DIEGO      CLOUDY    62  48  60 S5        29.96F
BURBANK        CLOUDY    58  47  66 S3        29.93F
ONTARIO        MOCLDY    55  47  74 W7        29.93F
RIVERSIDE      CLOUDY    56  47  71 NW3       29.94F
PALM SPRINGS   MOCLDY    67  42  40 NW10      29.78F
EL CENTRO NAS  PTCLDY    66  44  45 W18       29.78F
IMPERIAL       PTCLDY    63  45  51 W10       29.76S
BLYTHE         MOCLDY    70  46  42 SE6       29.76F
NEEDLES        PTCLDY    77  34  21 SW16      29.74F
$$

NVZ020-UTZ003-061000-
SOUTHERN NEVADA-UTAH

CITY           SKY/WX    TMP DP  RH WIND       PRES   REMARKS
LAS VEGAS      MOCLDY    72  35  25 S13       29.72F
SALT LAKE CITY CLOUDY    55  48  77 SE7       29.81F
$$

NMZ009-TXZ055-061000-
NEW MEXICO-WEST TEXAS

CITY           SKY/WX    TMP DP  RH WIND       PRES   REMARKS
ALBUQUERQUE    MOCLDY    54  43  66 SW6       29.94F
EL PASO        CLEAR     66  39  37 N3        29.92F
$$


........................KEY........................
SKY/WX - SKY CONDITION/WEATHER
TMP    - TEMPERATURE IN FAHRENHEIT
DP     - DEW POINT IN FAHRENHEIT
RH     - RELATIVE HUMIDITY IN PERCENT
WIND   - DIRECTION AND SPEED IN MILES PER HOUR (MPH)
VRB    - VARIABLE WIND DIRECTION
PRES   - MEAN SEA LEVEL PRESSURE IN INCHES OF MERCURY
         F - FALLING PRESSURE   R - RISING PRESSURE
         S - STEADY PRESSURE
VSB    - VISIBILITY IN MILES
HX     - HEAT INDEX IN FAHRENHEIT
WCI    - WIND CHILL INDEX IN FAHRENHEIT
TC     - TEMPERATURE IN CELSIUS WHICH IS ALSO KNOWN AS
         TEMPERATURE IN CENTIGRADE
AFB    - AIR FORCE BASE
         LUKE AFB IS LUKE AIR FORCE BASE
         DAVIS-MONTHAN IS DAVIS-MONTHAN AIR FORCE BASE
NAS    - NAVAL AIR STATION
         EL CENTRO NAS IS EL CENTRO NAVAL AIR STATION
N/A    - NOT AVAILABLE




USA.gov is the U.S. government's official web portal to all federal, state and local government web resources and services.